| time (UTC) | temp F | wind direction | speed MPH | gust MPH | rain 1hr in | rain 24hr in | rain mn in | humidity % | barometer mb |
| 20260502210734 | 51 | 258 | 0.0 | 1.0 | 0.00 | 0.00 | 0.00 | 45 | 1020.9 |
| 20260502205227 | 50 | 287 | 0.0 | 0.0 | 0.00 | 0.00 | 0.00 | 45 | 1021.0 |
| 20260502203718 | 51 | 291 | 0.0 | 1.0 | 0.00 | 0.00 | 0.00 | 43 | 1021.0 |
| 20260502202208 | 52 | 278 | 0.0 | 0.0 | 0.00 | 0.00 | 0.00 | 42 | 1021.0 |
| 20260502200708 | 52 | 294 | 0.0 | 0.0 | 0.00 | 0.00 | 0.00 | 43 | 1021.2 |
| 20260502195201 | 51 | 279 | 0.0 | 0.0 | 0.00 | 0.00 | 0.00 | 47 | 1021.2 |
| 20260502193717 | 51 | 284 | 0.0 | 0.0 | 0.00 | 0.00 | 0.00 | 44 | 1021.3 |
| 20260502192155 | 51 | 270 | 0.0 | 1.0 | 0.00 | 0.00 | 0.00 | 43 | 1021.3 |
| 20260502190651 | 51 | 285 | 0.0 | 1.0 | 0.00 | 0.00 | 0.00 | 44 | 1021.7 |
| 20260502185148 | 51 | 281 | 0.0 | 0.0 | 0.00 | 0.00 | 0.00 | 45 | 1021.8 |
| 20260502183707 | 51 | 286 | 0.0 | 1.0 | 0.00 | 0.00 | 0.00 | 44 | 1021.9 |
| 20260502182140 | 50 | 284 | 0.0 | 1.0 | 0.00 | 0.00 | 0.00 | 46 | 1021.9 |
| 20260502180637 | 50 | 287 | 0.0 | 2.0 | 0.00 | 0.00 | 0.00 | 45 | 1021.9 |
| 20260502163616 | 49 | 281 | 0.0 | 1.0 | 0.00 | 0.00 | 0.00 | 51 | 1022.5 |
| 20260502162112 | 48 | 276 | 0.0 | 1.0 | 0.00 | 0.00 | 0.00 | 49 | 1022.6 |
| 20260502160627 | 48 | 299 | 0.0 | 1.0 | 0.00 | 0.00 | 0.00 | 51 | 1022.5 |
| 20260502152058 | 46 | 300 | 0.0 | 1.0 | 0.00 | 0.00 | 0.00 | 58 | 1022.6 |
| 20260502150557 | 46 | 306 | 0.0 | 1.0 | 0.00 | 0.00 | 0.00 | 57 | 1022.7 |
| 20260502130527 | 46 | 286 | 0.0 | 0.0 | 0.00 | 0.00 | 0.00 | 64 | 1022.1 |
| 20260502123542 | 44 | 287 | 1.0 | 2.0 | 0.00 | 0.00 | 0.00 | 73 | 1022.1 |
| 20260502122018 | 40 | 281 | 0.0 | 0.0 | 0.00 | 0.00 | 0.00 | 85 | 1022.2 |
| 20260502120517 | 38 | 293 | 0.0 | 0.0 | 0.00 | 0.00 | 0.00 | 88 | 1021.9 |
| 20260502115011 | 37 | 293 | 0.0 | 0.0 | 0.00 | 0.00 | 0.00 | 90 | 1022.0 |
| 20260502113507 | 36 | 292 | 0.0 | 0.0 | 0.00 | 0.00 | 0.00 | 91 | 1022.0 |
| 20260502112002 | 36 | 292 | 0.0 | 0.0 | 0.00 | 0.00 | 0.00 | 91 | 1021.9 |
| 20260502110522 | 36 | 292 | 0.0 | 0.0 | 0.00 | 0.00 | 0.00 | 90 | 1021.5 |
| 20260502104958 | 36 | 292 | 0.0 | 0.0 | 0.00 | 0.00 | 0.00 | 88 | 1021.4 |
| 20260502103457 | 37 | 292 | 0.0 | 0.0 | 0.00 | 0.00 | 0.00 | 87 | 1021.2 |
| 20260502101952 | 37 | 292 | 0.0 | 0.0 | 0.00 | 0.00 | 0.00 | 86 | 1021.4 |
| 20260502100447 | 38 | 292 | 0.0 | 0.0 | 0.00 | 0.00 | 0.00 | 85 | 1021.4 |
| 20260502090441 | 39 | 293 | 0.0 | 1.0 | 0.00 | 0.00 | 0.00 | 82 | 1021.1 |
| 20260502070356 | 40 | 289 | 0.0 | 0.0 | 0.00 | 0.00 | 0.00 | 81 | 1020.4 |
| 20260502064854 | 40 | 285 | 0.0 | 0.0 | 0.00 | 0.00 | 0.00 | 81 | 1020.5 |
| 20260502063350 | 40 | 285 | 0.0 | 0.0 | 0.00 | 0.00 | 0.00 | 83 | 1020.8 |
| 20260502061847 | 40 | 283 | 0.0 | 0.0 | 0.00 | 0.00 | 0.00 | 83 | 1020.8 |
| 20260502060344 | 40 | 281 | 0.0 | 0.0 | 0.00 | 0.00 | 0.00 | 84 | 1020.7 |
| 20260502054837 | 40 | 287 | 0.0 | 0.0 | 0.00 | 0.00 | 0.00 | 90 | 1020.8 |
| 20260502053328 | 39 | 288 | 0.0 | 0.0 | 0.00 | 0.00 | 0.00 | 95 | 1020.7 |
| 20260502051820 | 39 | 286 | 0.0 | 0.0 | 0.00 | 0.00 | 0.00 | 96 | 1020.9 |
| 20260502050317 | 38 | 286 | 0.0 | 0.0 | 0.00 | 0.00 | 0.00 | 96 | 1021.2 |
| 20260502044808 | 38 | 286 | 0.0 | 0.0 | 0.00 | 0.00 | 0.00 | 95 | 1020.9 |
| 20260502043307 | 39 | 286 | 0.0 | 0.0 | 0.00 | 0.00 | 0.00 | 95 | 1021.0 |
| 20260502041808 | 40 | 286 | 0.0 | 0.0 | 0.00 | 0.00 | 0.00 | 93 | 1020.8 |
| 20260502040301 | 40 | 286 | 0.0 | 0.0 | 0.00 | 0.00 | 0.00 | 91 | 1020.9 |
| 20260502034801 | 41 | 286 | 0.0 | 0.0 | 0.00 | 0.24 | 0.24 | 90 | 1020.8 |
| 20260502033257 | 42 | 286 | 0.0 | 0.0 | 0.00 | 0.24 | 0.24 | 90 | 1020.8 |
| 20260502031807 | 42 | 286 | 0.0 | 0.0 | 0.00 | 0.24 | 0.24 | 90 | 1020.6 |
| 20260502030237 | 42 | 286 | 0.0 | 0.0 | 0.00 | 0.24 | 0.24 | 91 | 1020.5 |
| 20260502024758 | 42 | 286 | 0.0 | 0.0 | 0.00 | 0.24 | 0.24 | 92 | 1020.5 |
| 20260502023227 | 42 | 286 | 0.0 | 0.0 | 0.00 | 0.24 | 0.24 | 92 | 1020.5 |
| 20260502021727 | 41 | 286 | 0.0 | 0.0 | 0.00 | 0.24 | 0.24 | 91 | 1020.4 |
| 20260502020225 | 41 | 286 | 0.0 | 0.0 | 0.00 | 0.24 | 0.24 | 91 | 1020.4 |
| 20260502014738 | 41 | 286 | 0.0 | 0.0 | 0.00 | 0.24 | 0.24 | 92 | 1020.0 |
| 20260502013207 | 41 | 287 | 0.0 | 0.0 | 0.00 | 0.24 | 0.24 | 92 | 1020.1 |
| 20260502011701 | 41 | 285 | 0.0 | 0.0 | 0.00 | 0.24 | 0.24 | 90 | 1019.6 |
| 20260502010158 | 42 | 285 | 0.0 | 0.0 | 0.00 | 0.24 | 0.24 | 90 | 1019.5 |
| 20260502004655 | 42 | 284 | 0.0 | 0.0 | 0.00 | 0.24 | 0.24 | 90 | 1019.6 |
| 20260502003152 | 43 | 283 | 0.0 | 0.0 | 0.00 | 0.24 | 0.24 | 88 | 1019.6 |
| 20260502001648 | 43 | 285 | 0.0 | 0.0 | 0.07 | 0.24 | 0.24 | 86 | 1019.4 |
| 20260502000147 | 45 | 275 | 0.0 | 0.0 | 0.12 | 0.23 | 0.23 | 81 | 1019.5 |
| 20260501234642 | 47 | 283 | 0.0 | 1.0 | 0.00 | 0.21 | 0.21 | 68 | 1019.1 |
| 20260501233137 | 48 | 282 | 0.0 | 0.0 | 0.00 | 0.21 | 0.21 | 64 | 1018.9 |
| 20260501231627 | 49 | 291 | 0.0 | 1.0 | 0.00 | 0.21 | 0.21 | 64 | 1018.8 |
| 20260501230117 | 49 | 285 | 0.0 | 0.0 | 0.00 | 0.21 | 0.21 | 67 | 1018.6 |
| 20260501224616 | 49 | 275 | 0.0 | 0.0 | 0.00 | 0.21 | 0.21 | 72 | 1018.7 |
| 20260501223112 | 49 | 265 | 1.0 | 2.0 | 0.00 | 0.21 | 0.21 | 71 | 1018.6 |
| 20260501221607 | 50 | 280 | 0.0 | 0.0 | 0.00 | 0.21 | 0.21 | 64 | 1018.6 |
| 20260501220117 | 50 | 285 | 0.0 | 0.0 | 0.00 | 0.21 | 0.21 | 64 | 1018.6 |
| 20260501214550 | 50 | 281 | 0.0 | 0.0 | 0.00 | 0.21 | 0.21 | 62 | 1018.5 |
| 20260501213047 | 50 | 265 | 1.0 | 1.0 | 0.00 | 0.21 | 0.21 | 59 | 1018.5 |
| 20260501211543 | 51 | 269 | 0.0 | 1.0 | 0.00 | 0.21 | 0.21 | 59 | 1018.5 |